Location: Chevoux
(46.3801°N, 4.9476°E)
Time: 21:49:31
(UTC+00:00)

SAR-Lupe-4 - Pass Details

Date: 28 January 2021
Orbit: 480 x 484 km, 98.2° (Epoch: 02 March)

Event Time Altitude Azimuth Distance (km) Brightness Sun altitude
Exits shadow 18:17:15 20° 22° (NNE) 1,178 5.2 -17.0°
Maximum altitude 18:19:38 69° 102° (ESE) 520 3.4 -17.4°
Drops below altitude 10° 18:23:10 10° 187° (S) 1,654 6.4 -18.0°
Sets 18:25:13 0° 190° (S) 2,527 7.4 -18.3°
